Orbital Elements at Epoch 2459000.5 (2020-May-31.0) TDB
Reference: JPL 17 (heliocentric ecliptic J2000)
Element | Value | Uncertainty (1-sigma) | Units |
e | .2019526595358837 | 4.1706e-08 | |
a | 2.348666256923999 | 1.2327e-08 | au |
q | 1.874346859976008 | 9.6148e-08 | au |
i | 8.969087597457744 | 4.7523e-06 | deg |
node | 152.4432687868091 | 2.8864e-05 | deg |
peri | 249.8323591041711 | 3.0856e-05 | deg |
M | 168.4936475307692 | 1.1484e-05 | deg |
tp | 2458385.165280101623 (2018-Sep-23.66528010) | 4.0252e-05 | TDB |
period | 1314.711280868694 3.60 | 1.0351e-05 2.834e-08 | d yr |
n | .2738243789633648 | 2.1558e-09 | deg/d |
Q | 2.82298565387199 | 1.4817e-08 | au |
|
| | Orbit Determination Parameters
Additional Information
|